Regional Weather Roundup
Issued by NWS Grand Forks, ND

Home | Current Version | Previous Version | Graphics & Text | Print | Product List | Glossary On
Versions: 1 2 3 4 5 6 7 8 9 10 11 12 13 14 15 16 17 18 19 20 21 22 23 24 25 26 27 28 29 30 31 32 33 34 35 36 37 38 39 40 41 42 43 44 45 46 47 48 49 50
000
ASUS43 KFGF 110731
RWRFGF
PRAIRIE TO PINES  WEATHER ROUNDUP
NATIONAL WEATHER SERVICE EASTERN NORTH DAKOTA/GRAND FORKS ND
100 AM CST MON DEC 11 2017

 **SATELLITE DATA USED TO AUGMENT SKY COVER AT AUTOMATED STATIONS**
 *****  WEATHER ACROSS EASTERN NORTH DAKOTA  *****

CITY           SKY/WX    TMP DP  RH WIND       PRES   REMARKS
GRAND FORKS    CLOUDY    31  30  96 S5        29.69F
GRAND FRKS AFB CLOUDY    37  30  75 N5        29.68F
GRAND FRKS NWS   N/A     30 N/A N/A S2          N/A
DEVILS LAKE    MIX PCPN  36  31  82 NW29G36   29.71F
FARGO          CLOUDY    32  28  85 S9        29.75F WCI  24
WAHPETON ARPT  CLOUDY    28  25  86 S8        29.77F WCI  20
$$

 ***** WEATHER ACROSS CENTRAL AND WESTERN NORTH DAKOTA  *****

CITY           SKY/WX    TMP DP  RH WIND       PRES   REMARKS
BISMARCK       FAIR      43  23  45 W16       29.89F
MINOT          CLOUDY    41  32  70 W35G44    29.82R
JAMESTOWN      MOCLDY    40  28  62 W18       29.74F
MINOT AFB      CLOUDY    39  32  75 NW33G41   29.80R
GARRISON         N/A     40  32  73 NW33G48   29.86R
WILLISTON      CLOUDY    42  29  59 NW33G46   30.01R
DICKINSON      FAIR      38  24  57 NW29G35   29.98R
HETTINGER      FAIR      39  17  41 W24       30.04R
$$

 *****  OTHER AIRPORT OBSERVATIONS IN OUR AREA  *****

CITY           SKY/WX    TMP DP  RH WIND       PRES   REMARKS
WALHALLA       FAIR      37  37 100 W10G18    29.66S
GRAFTON AIRPOR NOT AVBL
VALLEY CITY AR NOT AVBL
CANDO          PTSUNNY   34  34 100 W17       29.73S WCI  23
CAVALIER APRT  CLOUDY    32  32 100 CALM      29.66F
GWINNER          N/A     37  30  75 W14       29.76F
SHEYENNE NWR     N/A     32  32 100 SW5       29.95S
ROLLA          CLOUDY    36  34  93 NW30G36   29.71R
 ***** THE ABOVE OBSERVATIONS ARE NON NWS ARE NOT QUALITY
       CONTROLLED AND MAY MIS-REPORT RAIN FOR SNOW...
$$

  *****  WEATHER ACROSS NORTHERN MINNESOTA  *****

CITY           SKY/WX    TMP DP  RH WIND       PRES   REMARKS
FLAG ISLAND    LGT SNOW  19  18  93 S14       29.70F WCI   6
WARROAD        LGT SNOW  21  18  86 S6        29.69F WCI  14
ROSEAU         CLOUDY    25  19  80 S13       29.68F HAZE    WCI  13
HALLOCK        MIX PCPN  27  27 100 S10       29.67F WCI  17
THF RVR FALLS  CLOUDY    27  27 100 SW12      29.69F WCI  16
BAUDETTE       LGT SNOW  20  18  92 SE8       29.70F FOG     WCI  10
WASKISH        LGT SNOW  21  19  93 SE6       29.71F WCI  14
CROOKSTON      FAIR      28  27  93 S7        29.70F WCI  21
STEPHEN NDAWN    N/A     27  25  93 S8          N/A  WCI  18
GREENBUSH NDAW   N/A     25  23  93 S13         N/A  WCI  13
$$
  *****  WEATHER ACROSS CENTRAL AND WEST MINNESOTA  *****

CITY           SKY/WX    TMP DP  RH WIND       PRES   REMARKS
FOSSTON        CLOUDY    27  25  93 S15       29.71F WCI  15
BEMIDJI        CLOUDY    22  21  94 S6        29.72F WCI  15
PARK RAPIDS    CLOUDY    24  21  88 S7        29.75F WCI  16
ELBOW LAKE     FAIR      26  24  92 S5        29.79F WCI  20
WADENA         MOCLDY    27  27 100 SW6       29.77F WCI  20
DETROIT LAKES  MOCLDY    30  28  93 SW12      29.75F WCI  21
MOORHEAD       DRIZZLE   28  27  93 S12       29.75F WCI  18
FERGUS FALLS   MOCLDY    27  27 100 SW7       29.81F WCI  19
MORRIS MN      FAIR      28  25  86 S7        29.79F WCI  21
STAPLES        CLOUDY    25  23  93 S7        29.77F WCI  17
$$
  *****  WEATHER ELSEWHERE ACROSS MINNESOTA  *****

CITY           SKY/WX    TMP DP  RH WIND       PRES   REMARKS
DULUTH         LGT SNOW  17  13  84 SE10      29.83F WCI   5
INTRNTL FALLS  SNOW      16  12  84 VRB5      29.76F VSB 1/2 WCI   9
ELY            FLURRIES  10   7  85 SE5       29.80F WCI   2
CLOQUET        LGT SNOW  18  14  86 SE5       29.84F WCI  11
WHEATON        NOT AVBL
BRAINERD       LGT SNOW  25  22  88 S7        29.79F FOG     WCI  17
HIBBING        LGT SNOW  15  13  91 SE6       29.80F VSB 1   WCI   6
ALEXANDRIA     CLOUDY    28  24  85 S8        29.81F WCI  20
SAINT CLOUD    LGT SNOW  25  24  96 SE8       29.80F FOG     WCI  16
MINNEAPOLIS    SNOW      26  25  96 S5        29.92F VSB 1/2 WCI  20
$$

  *****  WEATHER ACROSS SOUTH DAKOTA  *****

CITY           SKY/WX    TMP DP  RH WIND       PRES   REMARKS
SIOUX FALLS    FAIR      36  28  73 MISG      29.93R
BROOKINGS      CLOUDY    36  27  69 W10       29.89F
WATERTOWN      CLOUDY    38  27  64 W14       29.85F
HURON          FAIR      36  26  67 MISG      29.90F
SISSETON         N/A     42  27  55 NW14G21   29.78F
ABERDEEN       CLOUDY    42  27  55 W13       29.86F
MITCHELL       FAIR      37  26  64 W9        29.94F
PIERRE         FAIR      45  22  40 W24       29.98S
MOBRIDGE       FAIR      38  22  52 NW9       29.89F
RAPID CITY     FAIR      54  12  18 NW38G46   30.13R
$$

  *****  SOME WEATHER IN NEARBY STATES *****

CITY           SKY/WX    TMP DP  RH WIND       PRES   REMARKS
GLASGOW MT     FAIR      41  23  48 NW22      30.20R
GREAT FALLS MT FAIR      36  13  38 SW13      30.42R
CHEYENNE WY    FAIR      38   0  20 NW12      30.34R
SCOTTSBLUFF NE FAIR      32   9  38 NW9       30.28S WCI  24
OMAHA NE       MOCLDY    31  22  69 SE6       30.00F
DES MOINES IA  MOCLDY    32  24  72 S7        30.01F
DAVENPORT IA   MOCLDY    25  20  81 S6        30.06F WCI  18
CHICAGO IL     MOCLDY    27  17  66 CALM      30.06S
EAU CLAIRE WI  CLOUDY    23  19  85 S5        29.94F WCI  17
LA CROSSE WI   CLOUDY    28  21  75 S7        29.98F WCI  21
$$

  *****  SOME NATIONAL WEATHER *****

CITY           SKY/WX    TMP DP  RH WIND       PRES   REMARKS
LA GUARDIA NY  CLOUDY    37  21  52 SW14      29.99F
RALEIGH NC     FAIR      28  25  88 SW5       30.14S WCI  23
ATLANTA GA     FAIR      34  28  79 W5        30.22F
NEW ORLEANS LA FAIR      41  37  86 SW5       30.33F
OKLAHOMA CITY  FAIR      41  15  35 CALM      30.24F
ALBUQUERQUE NM FAIR      29   1  30 SE5       30.48R WCI  24
SALT LAKE CITY FAIR      24  21  88 W3        30.61R FOG
LOS ANGELES CA MOCLDY    68  18  14 CALM      30.17R
BOISE ID       CLOUDY    25  20  81 CALM      30.68S
SEATTLE WA     FAIR      39  33  79 NE5       30.32S
$$

*** WEATHER ACROSS MANITOBA...SASKATCHEWAN AND ONTARIO ***
                ***ONTARIO***

CITY           SKY/WX    TMP DP  RH WIND       PRES   REMARKS
GERALDTON      CLOUDY     0  -4  85 SW6       29.87F WCI -12
THUNDER BAY    MOCLDY    -2  -6  84 NW7       29.93F WCI -16
SIOUX LOOKOUT  CLOUDY     1  -2  85 SE7       29.77F WCI -11
TORONTO        FLURRIES  23  16  74 N10       29.91R WCI  12
BIG TROUT LK   LGT SNOW  -2  -6  84 W5        29.79S WCI -12
PICKLE LAKE    NOT AVBL
DRYDEN         FLURRIES   9   7  92 SE7       29.74F WCI  -3
KENORA         LGT SNOW  16  12  86 S9        29.70F VSB 3/4 WCI   4
$$
                *** MANITOBA***

CITY           SKY/WX    TMP DP  RH WIND       PRES   REMARKS
BRANDON        CLOUDY    36  30  80 NW17G24   29.73R
DAUPHIN        CLOUDY    30  28  93 N21G28    29.83R WCI  17
ISLAND LAKE    LGT SNOW   3   0  85 N7        29.81  WCI  -9
PILOT MOUND      N/A     36  28  75 NW17        N/A
THE PAS        FLURRIES  18  12  79 N22G29    30.02R WCI   0
THOMPSON       CLEAR     -2  -8  78 NW6       30.00R WCI -14
WINNIPEG       LGT SNOW  25  25 100 S2        29.67S
LYNN LAKE      CLEAR     -2  -4  92 NW7       30.10R WCI -16
CHURCHILL      FLURRIES   1  -2  85 N18       29.97R WCI -19
GILLAM         FLURRIES   0  -6  78 N10       29.92R WCI -17
$$
                ***SASKATCHEWAN***

CITY           SKY/WX    TMP DP  RH WIND       PRES   REMARKS
ESTEVAN        MOCLDY    37  32  81 NW30G39   29.92R
KINDERSLEY     PTCLDY    32  27  80 NW13      30.21R WCI  22
LLOYDMINSTER   MOCLDY    34  28  80 W14       30.20R WCI  24
PRINCE ALBERT  CLOUDY    36  28  75 N12G21    30.11R
REGINA         FLURRIES  34  32  93 NW31G41   30.02R WCI  20
YORKTON        CLOUDY    34  30  86 NW22G29   29.88R WCI  22
N. BATTLEFORD  CLOUDY    36  30  80 NW13      30.19R
LA RONGE       CLOUDY    19  14  79 N6        30.17R WCI  11
SASKATOON      MOCLDY    36  30  80 NW10      30.15R
SWIFT CURRENT  CLOUDY    37  27  65 NW21G29   30.21R
$$
NOTE: THESE ARE AUTOMATED STATIONS WITH LIMITED QUALITY CONTROL
      "FAIR" INDICATES FEW OR NO CLOUDS BELOW 12,000 FEET WITH NO
      SIGNIFICANT WEATHER AND/OR OBSTRUCTIONS TO VISIBILITY.
      SKY/WX - SKY CONDITION AND SIGNIFICANT WEATHER.
      TMP - AIR TEMPERATURE.    DP   - DEWPOINT TEMPERATURE.
      RH  - RELATIVE HUMIDITY.  PRES - PRESSURE.
      HX  - HEAT INDEX.         WCI  - WIND CHILL INDEX.
$




USA.gov is the U.S. government's official web portal to all federal, state and local government web resources and services.